FW6403 Weather Reports


time (UTC)temp
C
wind
direction
speed
KPH
gust
KPH
rain 1hr
cm
rain 24hr
cm
rain mn
cm
humidity
%
barometer
mb
20260506163107 21 0 3.2 14.5 0.00 0.03 0.00 49 1008.0
20260506161557 21 167 3.2 12.9 0.00 0.03 0.00 49 1007.9
20260506160109 21 326 4.8 20.9 0.00 0.03 0.00 50 1007.9
20260506154558 21 217 3.2 12.9 0.00 0.03 0.00 52 1007.9
20260506153057 22 360 3.2 16.1 0.00 0.03 0.00 52 1008.0
20260506151557 22 360 3.2 16.1 0.00 0.03 0.00 55 1007.9
20260506150057 22 360 3.2 16.1 0.00 0.03 0.00 52 1007.9
20260506144603 23 360 1.6 9.7 0.00 0.05 0.00 58 1008.0
20260506143056 23 360 1.6 9.7 0.00 0.05 0.00 62 1008.0
20260506141557 23 360 1.6 6.4 0.00 0.05 0.00 62 1008.3
20260506140101 22 360 1.6 6.4 0.00 0.05 0.00 67 1008.2
20260506134556 22 360 1.6 9.7 0.00 0.08 0.00 73 1008.3
20260506133054 22 360 1.6 9.7 0.00 0.08 0.00 70 1008.4
20260506131607 22 0 0.0 8.0 0.00 0.08 0.00 72 1008.5
20260506130057 22 360 3.2 12.9 0.00 0.08 0.00 71 1008.5
20260506124556 21 89 1.6 11.3 0.00 0.08 0.00 77 1008.7
20260506123058 21 39 1.6 12.9 0.00 0.08 0.00 79 1008.8
20260506121600 20 118 3.2 11.3 0.00 0.08 0.00 83 1008.7
20260506114556 18 117 0.0 11.3 0.00 0.13 0.00 90 1008.9
20260506113104 18 114 1.6 14.5 0.00 0.13 0.00 92 1008.9
20260506111557 17 167 3.2 14.5 0.00 0.13 0.00 93 1009.1
20260506110058 17 108 3.2 12.9 0.00 0.13 0.00 93 1009.1
20260506104607 17 76 3.2 11.3 0.00 0.18 0.00 92 1009.2
20260506103056 17 88 1.6 9.7 0.00 0.18 0.00 89 1009.6
20260506101557 17 99 3.2 11.3 0.00 0.18 0.00 85 1009.8
20260506100114 18 81 3.2 11.3 0.00 0.18 0.00 83 1009.6
20260506094600 17 47 3.2 12.9 0.00 0.23 0.00 85 1009.6
20260506093104 17 120 3.2 11.3 0.00 0.23 0.00 86 1009.5
20260506091603 17 83 4.8 14.5 0.00 0.23 0.00 85 1009.6
20260506090100 17 115 4.8 12.9 0.00 0.23 0.00 85 1009.5
20260506084604 17 95 1.6 11.3 0.00 0.30 0.00 87 1009.4
20260506083110 17 69 1.6 12.9 0.00 0.30 0.00 88 1009.3
20260506081558 16 75 1.6 11.3 0.00 0.30 0.00 92 1009.4
20260506073057 15 360 1.6 8.0 0.00 0.43 0.00 95 1009.6
20260506071559 15 360 1.6 14.5 0.00 0.43 0.00 96 1009.5
20260506061556 15 360 1.6 6.4 0.00 0.48 0.00 97 1010.1
20260506050104 14 360 3.2 9.7 0.00 0.51 0.00 96 1010.5
20260506044557 13 0 0.0 3.2 0.00 0.51 0.00 96 1010.7
20260506043056 13 360 1.6 6.4 0.00 0.51 0.00 96 1010.5
20260506041602 13 0 1.6 6.4 0.00 0.51 0.00 96 1010.6
20260506040110 13 360 0.0 6.4 0.00 0.51 0.00 96 1010.4
20260506034555 13 0 1.6 6.4 0.00 0.51 0.00 96 1010.3
20260506033056 13 360 1.6 6.4 0.00 0.51 0.00 95 1010.4
20260506031602 13 0 0.0 3.2 0.00 0.51 0.00 96 1010.4
20260506030107 13 0 0.0 3.2 0.00 0.51 0.00 95 1010.3
20260506024600 13 360 1.6 6.4 0.00 0.51 0.00 95 1010.8
20260506023057 13 0 0.0 4.8 0.00 0.51 0.00 95 1010.9
20260506021601 13 0 1.6 6.4 0.00 0.51 0.00 95 1010.9
20260506020055 13 360 3.2 12.9 0.00 0.51 0.00 95 1010.9
20260506014603 13 360 3.2 9.7 0.00 0.51 0.00 94 1011.0
20260506013056 13 360 3.2 8.0 0.00 0.48 0.00 94 1011.2
20260506011556 13 360 1.6 8.0 0.00 0.48 0.00 94 1011.5
20260506010105 13 360 1.6 8.0 0.00 0.48 0.00 93 1011.9
20260506004556 13 360 0.0 4.8 0.00 0.48 0.00 93 1012.0
20260506003058 13 0 0.0 4.8 0.00 0.48 0.00 93 1012.2
20260506001601 13 0 1.6 3.2 0.00 0.48 0.00 92 1012.0
20260506000059 13 0 0.0 4.8 0.00 0.48 0.00 92 1012.1
20260505234557 13 0 0.0 4.8 0.00 0.48 0.00 92 1012.3
20260505233116 13 360 1.6 6.4 0.00 0.48 0.00 92 1012.3
20260505231557 13 360 1.6 6.4 0.00 0.48 0.00 92 1012.8
20260505230058 13 360 1.6 4.8 0.00 0.48 0.00 92 1012.8
20260505224611 13 0 0.0 4.8 0.00 0.48 0.00 93 1012.7
20260505223100 13 360 0.0 6.4 0.00 0.48 0.00 93 1012.7
20260505221605 13 360 1.6 8.0 0.00 0.48 0.00 93 1012.7
20260505220108 13 0 0.0 1.6 0.00 0.48 0.00 92 1012.7
20260505214606 13 0 0.0 0.0 0.00 0.48 0.48 92 1012.9
20260505213123 13 0 0.0 3.2 0.00 0.48 0.48 91 1013.1
20260505211558 13 0 0.0 4.8 0.00 0.48 0.48 91 1013.3
20260505210106 13 360 1.6 8.0 0.00 0.48 0.48 91 1013.4
20260505204557 13 360 0.0 4.8 0.00 0.48 0.48 90 1013.2
20260505203059 13 0 0.0 4.8 0.00 0.48 0.48 90 1013.2
20260505201557 14 360 1.6 6.4 0.00 0.48 0.48 89 1013.3
20260505200056 14 360 3.2 8.0 0.00 0.48 0.48 88 1013.1
20260505194601 15 0 3.2 6.4 0.00 0.48 0.48 88 1013.2
20260505193114 15 360 0.0 4.8 0.00 0.48 0.48 87 1013.0
20260505191559 15 0 0.0 3.2 0.00 0.48 0.48 87 1012.9
20260505190056 15 0 0.0 3.2 0.00 0.48 0.48 86 1012.8
20260505184556 15 0 0.0 4.8 0.00 0.48 0.48 86 1012.7
20260505183056 16 360 0.0 4.8 0.00 0.48 0.48 85 1012.5
20260505181555 16 360 1.6 4.8 0.00 0.48 0.48 84 1012.5
20260505180058 17 0 1.6 6.4 0.00 0.48 0.48 83 1012.4
20260505174558 17 360 1.6 4.8 0.00 0.48 0.48 82 1012.3
20260505173059 17 360 1.6 9.7 0.00 0.48 0.48 81 1012.3
20260505171556 17 0 1.6 6.4 0.00 0.48 0.48 81 1012.2
20260505170100 18 0 1.6 8.0 0.00 0.48 0.48 81 1012.1
20260505164559 18 5 3.2 8.0 0.00 0.48 0.48 81 1012.1